| time (UTC) | temp F | wind direction | speed MPH | gust MPH | rain 1hr in | rain 24hr in | rain mn in | humidity % | barometer mb |
| 20260506084611 | 20 | 5 | 2.0 | 4.0 | 0.00 | 0.00 | 0.00 | 1 | 1019.0 |
| 20260506084018 | 19 | 5 | 2.0 | 4.0 | 0.00 | 0.00 | 0.00 | 1 | 1018.9 |
| 20260506083517 | 19 | 5 | 2.0 | 5.0 | 0.00 | 0.00 | 0.00 | 1 | 1019.0 |
| 20260506083344 | 19 | 5 | 4.0 | 5.0 | 0.00 | 0.00 | 0.00 | 1 | 1019.1 |
| 20260506082516 | 19 | 5 | 3.0 | 4.0 | 0.00 | 0.00 | 0.00 | 1 | 1019.1 |
| 20260506082028 | 20 | 5 | 2.0 | 5.0 | 0.00 | 0.00 | 0.00 | 1 | 1019.2 |
| 20260506081559 | 20 | 5 | 4.0 | 5.0 | 0.00 | 0.00 | 0.00 | 1 | 1019.3 |
| 20260506081023 | 20 | 5 | 2.0 | 6.0 | 0.00 | 0.00 | 0.00 | 1 | 1019.2 |
| 20260506080520 | 20 | 5 | 4.0 | 6.0 | 0.00 | 0.00 | 0.00 | 1 | 1019.2 |
| 20260506080105 | 21 | 5 | 3.0 | 5.0 | 0.00 | 0.00 | 0.00 | 1 | 1019.3 |
| 20260506073522 | 22 | 5 | 2.0 | 4.0 | 0.00 | 0.00 | 0.00 | 1 | 1019.5 |
| 20260506073058 | 22 | 5 | 2.0 | 5.0 | 0.00 | 0.00 | 0.00 | 1 | 1019.5 |
| 20260506072520 | 22 | 5 | 2.0 | 5.0 | 0.00 | 0.00 | 0.00 | 1 | 1019.5 |
| 20260506072018 | 23 | 5 | 3.0 | 5.0 | 0.00 | 0.00 | 0.00 | 1 | 1019.5 |
| 20260506071558 | 23 | 5 | 3.0 | 5.0 | 0.00 | 0.00 | 0.00 | 1 | 1019.4 |
| 20260506071020 | 23 | 5 | 3.0 | 4.0 | 0.00 | 0.00 | 0.00 | 1 | 1019.4 |
| 20260506070518 | 22 | 5 | 3.0 | 4.0 | 0.00 | 0.00 | 0.00 | 1 | 1019.5 |
| 20260506070123 | 22 | 5 | 3.0 | 5.0 | 0.00 | 0.00 | 0.00 | 1 | 1019.5 |
| 20260506062516 | 23 | 5 | 3.0 | 4.0 | 0.00 | 0.00 | 0.00 | 1 | 1019.7 |
| 20260506062018 | 25 | 5 | 3.0 | 4.0 | 0.00 | 0.00 | 0.00 | 1 | 1019.7 |
| 20260506061550 | 26 | 5 | 3.0 | 6.0 | 0.00 | 0.00 | 0.00 | 1 | 1019.6 |
| 20260506061017 | 27 | 5 | 4.0 | 6.0 | 0.00 | 0.00 | 0.00 | 1 | 1019.6 |
| 20260506060516 | 25 | 5 | 4.0 | 5.0 | 0.00 | 0.00 | 0.00 | 1 | 1019.6 |
| 20260506051027 | 22 | 5 | 3.0 | 5.0 | 0.00 | 0.00 | 0.00 | 1 | 1019.9 |
| 20260506050521 | 22 | 5 | 3.0 | 5.0 | 0.00 | 0.00 | 0.00 | 1 | 1019.8 |
| 20260506045027 | 23 | 5 | 2.0 | 4.0 | 0.00 | 0.00 | 0.00 | 1 | 1020.0 |
| 20260506044556 | 23 | 5 | 2.0 | 4.0 | 0.00 | 0.00 | 0.00 | 1 | 1020.0 |
| 20260506044020 | 24 | 5 | 2.0 | 4.0 | 0.00 | 0.00 | 0.00 | 1 | 1019.8 |
| 20260506043517 | 24 | 5 | 2.0 | 3.0 | 0.00 | 0.00 | 0.00 | 1 | 1020.0 |
| 20260506043056 | 25 | 5 | 1.0 | 3.0 | 0.00 | 0.00 | 0.00 | 1 | 1019.8 |
| 20260506042518 | 26 | 5 | 1.0 | 3.0 | 0.00 | 0.00 | 0.00 | 1 | 1019.8 |
| 20260506042017 | 26 | 5 | 2.0 | 3.0 | 0.00 | 0.00 | 0.00 | 1 | 1019.9 |
| 20260506041614 | 26 | 5 | 1.0 | 4.0 | 0.00 | 0.00 | 0.00 | 1 | 1019.8 |
| 20260506041027 | 26 | 5 | 0.0 | 4.0 | 0.00 | 0.00 | 0.00 | 1 | 1019.9 |
| 20260506040523 | 28 | 5 | 2.0 | 4.0 | 0.00 | 0.00 | 0.00 | 1 | 1019.8 |
| 20260506040059 | 29 | 5 | 1.0 | 4.0 | 0.00 | 0.00 | 0.00 | 1 | 1019.8 |
| 20260506035527 | 29 | 5 | 2.0 | 4.0 | 0.00 | 0.00 | 0.00 | 1 | 1019.8 |
| 20260506035016 | 29 | 5 | 2.0 | 4.0 | 0.00 | 0.00 | 0.00 | 1 | 1019.8 |
| 20260506034557 | 29 | 5 | 1.0 | 4.0 | 0.00 | 0.00 | 0.00 | 1 | 1019.6 |
| 20260506034017 | 28 | 5 | 2.0 | 4.0 | 0.00 | 0.00 | 0.00 | 1 | 1019.5 |
| 20260506033519 | 29 | 5 | 3.0 | 4.0 | 0.00 | 0.00 | 0.00 | 1 | 1019.6 |
| 20260506033107 | 30 | 5 | 2.0 | 4.0 | 0.00 | 0.00 | 0.00 | 1 | 1019.7 |
| 20260506032516 | 31 | 5 | 2.0 | 5.0 | 0.00 | 0.00 | 0.00 | 1 | 1019.5 |
| 20260506032016 | 32 | 5 | 2.0 | 4.0 | 0.00 | 0.00 | 0.00 | 1 | 1019.4 |
| 20260506031839 | 33 | 5 | 2.0 | 5.0 | 0.00 | 0.00 | 0.00 | 1 | 1019.5 |
| 20260506031021 | 33 | 5 | 4.0 | 5.0 | 0.00 | 0.00 | 0.00 | 1 | 1019.4 |
| 20260506030520 | 34 | 5 | 2.0 | 5.0 | 0.00 | 0.00 | 0.00 | 1 | 1019.3 |
| 20260506030100 | 35 | 5 | 3.0 | 5.0 | 0.00 | 0.00 | 0.00 | 1 | 1019.3 |
| 20260506025520 | 36 | 5 | 3.0 | 5.0 | 0.00 | 0.00 | 0.00 | 1 | 1019.3 |
| 20260506025018 | 36 | 5 | 3.0 | 5.0 | 0.00 | 0.00 | 0.00 | 1 | 1019.5 |
| 20260506024607 | 37 | 5 | 4.0 | 6.0 | 0.00 | 0.00 | 0.00 | 1 | 1019.2 |
| 20260506024021 | 38 | 5 | 5.0 | 6.0 | 0.00 | 0.00 | 0.00 | 1 | 1019.1 |
| 20260506023521 | 38 | 11 | 3.0 | 10.0 | 0.00 | 0.00 | 0.00 | 1 | 1019.1 |
| 20260506023106 | 39 | 348 | 3.0 | 10.0 | 0.00 | 0.00 | 0.00 | 1 | 1018.9 |
| 20260506022514 | 39 | 30 | 6.0 | 10.0 | 0.00 | 0.00 | 0.00 | 1 | 1018.9 |
| 20260506022027 | 40 | 336 | 5.0 | 10.0 | 0.00 | 0.00 | 0.00 | 1 | 1019.0 |
| 20260506021553 | 40 | 351 | 7.0 | 13.0 | 0.00 | 0.00 | 0.00 | 1 | 1019.1 |
| 20260506021020 | 41 | 360 | 9.0 | 13.0 | 0.00 | 0.00 | 0.00 | 1 | 1019.0 |
| 20260506020515 | 41 | 17 | 8.0 | 16.0 | 0.00 | 0.00 | 0.00 | 1 | 1018.9 |
| 20260506020111 | 41 | 5 | 8.0 | 16.0 | 0.00 | 0.00 | 0.00 | 1 | 1018.9 |
| 20260506015517 | 41 | 355 | 9.0 | 15.0 | 0.00 | 0.00 | 0.00 | 1 | 1018.8 |
| 20260506015019 | 42 | 344 | 11.0 | 17.0 | 0.00 | 0.00 | 0.00 | 1 | 1018.8 |
| 20260506014557 | 42 | 350 | 14.0 | 17.0 | 0.00 | 0.00 | 0.00 | 1 | 1018.7 |
| 20260506014018 | 42 | 355 | 9.0 | 16.0 | 0.00 | 0.00 | 0.00 | 1 | 1018.8 |
| 20260506013515 | 42 | 355 | 11.0 | 20.0 | 0.00 | 0.00 | 0.00 | 1 | 1018.9 |
| 20260506013052 | 42 | 5 | 14.0 | 21.0 | 0.00 | 0.00 | 0.00 | 1 | 1018.7 |
| 20260506012515 | 43 | 15 | 15.0 | 21.0 | 0.00 | 0.00 | 0.00 | 1 | 1018.8 |
| 20260506012026 | 43 | 5 | 11.0 | 24.0 | 0.00 | 0.00 | 0.00 | 1 | 1018.8 |
| 20260506011626 | 43 | 12 | 17.0 | 24.0 | 0.00 | 0.00 | 0.00 | 1 | 1018.7 |
| 20260506011015 | 43 | 360 | 12.0 | 21.0 | 0.00 | 0.00 | 0.00 | 1 | 1019.1 |
| 20260506010517 | 43 | 24 | 16.0 | 21.0 | 0.00 | 0.00 | 0.00 | 1 | 1018.9 |
| 20260506010053 | 43 | 333 | 10.0 | 19.0 | 0.00 | 0.00 | 0.00 | 1 | 1018.9 |
| 20260506005516 | 43 | 355 | 11.0 | 22.0 | 0.00 | 0.00 | 0.00 | 1 | 1018.9 |
| 20260506005015 | 43 | 9 | 15.0 | 21.0 | 0.00 | 0.00 | 0.00 | 1 | 1018.6 |
| 20260506004600 | 43 | 12 | 14.0 | 20.0 | 0.00 | 0.00 | 0.00 | 1 | 1018.8 |
| 20260506004017 | 43 | 355 | 14.0 | 20.0 | 0.00 | 0.00 | 0.00 | 1 | 1018.6 |
| 20260506003519 | 44 | 360 | 14.0 | 22.0 | 0.00 | 0.00 | 0.00 | 1 | 1018.7 |
| 20260506003049 | 44 | 5 | 13.0 | 20.0 | 0.00 | 0.00 | 0.00 | 1 | 1018.7 |
| 20260506002519 | 43 | 5 | 14.0 | 20.0 | 0.00 | 0.00 | 0.00 | 1 | 1018.6 |
| 20260506002017 | 44 | 336 | 14.0 | 22.0 | 0.00 | 0.00 | 0.00 | 1 | 1018.6 |
| 20260506001609 | 44 | 330 | 16.0 | 22.0 | 0.00 | 0.00 | 0.00 | 1 | 1018.4 |
| 20260506001018 | 44 | 355 | 16.0 | 25.0 | 0.00 | 0.00 | 0.00 | 1 | 1018.7 |
| 20260506000521 | 45 | 346 | 17.0 | 25.0 | 0.00 | 0.00 | 0.00 | 1 | 1018.6 |
| 20260506000123 | 45 | 331 | 17.0 | 23.0 | 0.00 | 0.00 | 0.00 | 1 | 1018.6 |
| 20260505235517 | 44 | 350 | 13.0 | 24.0 | 0.00 | 0.00 | 0.00 | 1 | 1018.6 |
| 20260505235020 | 45 | 355 | 18.0 | 26.0 | 0.00 | 0.00 | 0.00 | 1 | 1018.5 |
| 20260505234611 | 44 | 333 | 18.0 | 26.0 | 0.00 | 0.00 | 0.00 | 1 | 1018.7 |
| 20260505234020 | 45 | 332 | 16.0 | 25.0 | 0.00 | 0.00 | 0.00 | 1 | 1018.7 |
| 20260505233517 | 44 | 322 | 18.0 | 25.0 | 0.00 | 0.00 | 0.00 | 1 | 1018.5 |
| 20260505233116 | 44 | 349 | 16.0 | 27.0 | 0.00 | 0.00 | 0.00 | 1 | 1018.6 |
| 20260505232522 | 44 | 336 | 19.0 | 27.0 | 0.00 | 0.00 | 0.00 | 1 | 1018.4 |
| 20260505232019 | 43 | 17 | 17.0 | 24.0 | 0.00 | 0.00 | 0.00 | 1 | 1018.7 |
| 20260505231613 | 44 | 340 | 17.0 | 28.0 | 0.00 | 0.00 | 0.00 | 1 | 1018.8 |
| 20260505231027 | 43 | 341 | 16.0 | 27.0 | 0.00 | 0.00 | 0.00 | 1 | 1018.4 |
| 20260505230514 | 45 | 333 | 19.0 | 27.0 | 0.00 | 0.00 | 0.00 | 1 | 1018.4 |
| 20260505230051 | 45 | 336 | 19.0 | 24.0 | 0.00 | 0.00 | 0.00 | 1 | 1018.4 |
| 20260505225518 | 45 | 330 | 18.0 | 23.0 | 0.00 | 0.00 | 0.00 | 1 | 1018.6 |
| 20260505225013 | 45 | 355 | 13.0 | 27.0 | 0.00 | 0.00 | 0.00 | 1 | 1018.8 |
| 20260505224538 | 44 | 351 | 19.0 | 27.0 | 0.00 | 0.00 | 0.00 | 1 | 1018.3 |
| 20260505224015 | 45 | 5 | 16.0 | 26.0 | 0.00 | 0.00 | 0.00 | 1 | 1018.6 |
| 20260505223514 | 44 | 360 | 17.0 | 28.0 | 0.00 | 0.00 | 0.00 | 1 | 1018.4 |
| 20260505223039 | 45 | 360 | 19.0 | 28.0 | 0.00 | 0.00 | 0.00 | 1 | 1018.3 |
| 20260505222519 | 44 | 338 | 16.0 | 26.0 | 0.00 | 0.00 | 0.00 | 1 | 1018.6 |
| 20260505222015 | 44 | 351 | 18.0 | 26.0 | 0.00 | 0.00 | 0.00 | 1 | 1018.7 |
| 20260505221539 | 44 | 344 | 15.0 | 27.0 | 0.00 | 0.00 | 0.00 | 1 | 1018.4 |
| 20260505221012 | 44 | 336 | 20.0 | 27.0 | 0.00 | 0.00 | 0.00 | 1 | 1018.7 |
| 20260505220514 | 45 | 335 | 20.0 | 31.0 | 0.00 | 0.00 | 0.00 | 1 | 1018.2 |
| 20260505220034 | 44 | 326 | 19.0 | 32.0 | 0.00 | 0.00 | 0.00 | 1 | 1018.6 |
| 20260505215516 | 45 | 304 | 18.0 | 26.0 | 0.00 | 0.00 | 0.00 | 1 | 1018.3 |
| 20260505215015 | 45 | 346 | 18.0 | 28.0 | 0.00 | 0.00 | 0.00 | 1 | 1018.7 |
| 20260505214533 | 44 | 346 | 21.0 | 28.0 | 0.00 | 0.00 | 0.00 | 1 | 1018.9 |
| 20260505214016 | 44 | 350 | 19.0 | 29.0 | 0.00 | 0.00 | 0.00 | 1 | 1018.6 |
| 20260505213515 | 45 | 344 | 22.0 | 30.0 | 0.00 | 0.00 | 0.00 | 1 | 1018.5 |
| 20260505213040 | 44 | 343 | 20.0 | 30.0 | 0.00 | 0.00 | 0.00 | 1 | 1018.6 |
| 20260505212515 | 45 | 317 | 23.0 | 30.0 | 0.00 | 0.00 | 0.00 | 1 | 1018.5 |
| 20260505212018 | 44 | 338 | 20.0 | 34.0 | 0.00 | 0.00 | 0.00 | 1 | 1018.7 |
| 20260505211542 | 43 | 339 | 16.0 | 29.0 | 0.00 | 0.00 | 0.00 | 1 | 1018.9 |
| 20260505211017 | 44 | 348 | 19.0 | 29.0 | 0.00 | 0.00 | 0.00 | 1 | 1018.5 |
| 20260505210513 | 45 | 346 | 21.0 | 29.0 | 0.00 | 0.00 | 0.00 | 1 | 1018.3 |
| 20260505210037 | 44 | 343 | 23.0 | 29.0 | 0.00 | 0.00 | 0.00 | 1 | 1018.6 |
| 20260505205515 | 43 | 316 | 17.0 | 32.0 | 0.00 | 0.00 | 0.00 | 1 | 1018.7 |
| 20260505205014 | 44 | 336 | 22.0 | 30.0 | 0.00 | 0.00 | 0.00 | 1 | 1018.6 |
| 20260505204547 | 45 | 341 | 19.0 | 30.0 | 0.00 | 0.00 | 0.00 | 1 | 1018.8 |
| 20260505204015 | 45 | 310 | 20.0 | 28.0 | 0.00 | 0.00 | 0.00 | 1 | 1018.9 |
| 20260505203521 | 44 | 333 | 19.0 | 28.0 | 0.00 | 0.00 | 0.00 | 1 | 1019.0 |
| 20260505203119 | 43 | 339 | 18.0 | 29.0 | 0.00 | 0.00 | 0.00 | 1 | 1018.9 |
| 20260505202520 | 44 | 355 | 21.0 | 29.0 | 0.00 | 0.00 | 0.00 | 1 | 1018.7 |
| 20260505202023 | 44 | 355 | 18.0 | 29.0 | 0.00 | 0.00 | 0.00 | 1 | 1019.2 |
| 20260505201606 | 44 | 320 | 17.0 | 28.0 | 0.00 | 0.00 | 0.00 | 1 | 1018.9 |
| 20260505201019 | 43 | 360 | 18.0 | 29.0 | 0.00 | 0.00 | 0.00 | 1 | 1019.2 |
| 20260505200521 | 43 | 342 | 20.0 | 29.0 | 0.00 | 0.00 | 0.00 | 1 | 1019.2 |
| 20260505200123 | 43 | 305 | 21.0 | 28.0 | 0.00 | 0.00 | 0.00 | 1 | 1018.9 |
| 20260505195521 | 43 | 319 | 18.0 | 30.0 | 0.00 | 0.00 | 0.00 | 1 | 1019.2 |
| 20260505195021 | 43 | 316 | 18.0 | 32.0 | 0.00 | 0.00 | 0.00 | 1 | 1019.2 |
| 20260505194603 | 43 | 346 | 21.0 | 32.0 | 0.00 | 0.00 | 0.00 | 1 | 1019.1 |
| 20260505194017 | 43 | 344 | 20.0 | 31.0 | 0.00 | 0.00 | 0.00 | 1 | 1019.1 |
| 20260505193517 | 43 | 330 | 19.0 | 28.0 | 0.00 | 0.00 | 0.00 | 1 | 1019.3 |
| 20260505193045 | 42 | 309 | 19.0 | 27.0 | 0.00 | 0.00 | 0.00 | 1 | 1019.3 |
| 20260505192518 | 43 | 312 | 18.0 | 27.0 | 0.00 | 0.00 | 0.00 | 1 | 1019.3 |
| 20260505192017 | 43 | 355 | 17.0 | 27.0 | 0.00 | 0.00 | 0.00 | 1 | 1019.3 |
| 20260505191555 | 42 | 321 | 15.0 | 28.0 | 0.00 | 0.00 | 0.00 | 1 | 1019.4 |
| 20260505191021 | 42 | 335 | 17.0 | 25.0 | 0.00 | 0.00 | 0.00 | 1 | 1019.3 |
| 20260505190522 | 42 | 327 | 19.0 | 29.0 | 0.00 | 0.00 | 0.00 | 1 | 1019.3 |
| 20260505190055 | 43 | 344 | 20.0 | 29.0 | 0.00 | 0.00 | 0.00 | 1 | 1019.2 |
| 20260505185516 | 42 | 300 | 18.0 | 28.0 | 0.00 | 0.00 | 0.00 | 1 | 1019.2 |
| 20260505185014 | 42 | 5 | 19.0 | 28.0 | 0.00 | 0.00 | 0.00 | 1 | 1019.1 |
| 20260505184605 | 43 | 360 | 20.0 | 27.0 | 0.00 | 0.00 | 0.00 | 1 | 1019.3 |
| 20260505184017 | 42 | 352 | 17.0 | 30.0 | 0.00 | 0.00 | 0.00 | 1 | 1018.9 |
| 20260505183516 | 43 | 360 | 23.0 | 29.0 | 0.00 | 0.00 | 0.00 | 1 | 1018.7 |
| 20260505183057 | 43 | 315 | 18.0 | 28.0 | 0.00 | 0.00 | 0.00 | 1 | 1019.2 |
| 20260505182515 | 42 | 14 | 17.0 | 28.0 | 0.00 | 0.00 | 0.00 | 1 | 1019.1 |
| 20260505182025 | 42 | 349 | 16.0 | 25.0 | 0.00 | 0.00 | 0.00 | 1 | 1019.2 |
| 20260505181554 | 41 | 341 | 19.0 | 25.0 | 0.00 | 0.00 | 0.00 | 1 | 1019.2 |
| 20260505181019 | 43 | 327 | 17.0 | 25.0 | 0.00 | 0.00 | 0.00 | 1 | 1019.3 |
| 20260505180515 | 41 | 345 | 18.0 | 29.0 | 0.00 | 0.00 | 0.00 | 1 | 1019.2 |
| 20260505180100 | 40 | 5 | 20.0 | 29.0 | 0.00 | 0.00 | 0.00 | 1 | 1019.2 |
| 20260505175515 | 41 | 313 | 17.0 | 24.0 | 0.00 | 0.00 | 0.00 | 1 | 1019.2 |
| 20260505175016 | 40 | 306 | 15.0 | 24.0 | 0.00 | 0.00 | 0.00 | 1 | 1019.1 |
| 20260505174557 | 40 | 319 | 20.0 | 24.0 | 0.00 | 0.00 | 0.00 | 1 | 1019.1 |
| 20260505174018 | 42 | 317 | 14.0 | 24.0 | 0.00 | 0.00 | 0.00 | 1 | 1019.3 |
| 20260505173526 | 41 | 26 | 16.0 | 29.0 | 0.00 | 0.00 | 0.00 | 1 | 1019.3 |
| 20260505173114 | 41 | 360 | 19.0 | 27.0 | 0.00 | 0.00 | 0.00 | 1 | 1019.3 |
| 20260505172517 | 41 | 304 | 16.0 | 23.0 | 0.00 | 0.00 | 0.00 | 1 | 1019.5 |
| 20260505172014 | 40 | 350 | 18.0 | 25.0 | 0.00 | 0.00 | 0.00 | 1 | 1019.3 |
| 20260505171605 | 39 | 355 | 19.0 | 25.0 | 0.00 | 0.00 | 0.00 | 1 | 1019.2 |
| 20260505171016 | 40 | 349 | 15.0 | 22.0 | 0.00 | 0.00 | 0.00 | 1 | 1019.4 |
| 20260505170518 | 40 | 347 | 16.0 | 23.0 | 0.00 | 0.00 | 0.00 | 1 | 1019.3 |
| 20260505170052 | 40 | 13 | 16.0 | 23.0 | 0.00 | 0.00 | 0.00 | 1 | 1019.3 |
| 20260505165518 | 39 | 342 | 12.0 | 18.0 | 0.00 | 0.00 | 0.00 | 1 | 1019.5 |
| 20260505165015 | 38 | 315 | 10.0 | 20.0 | 0.00 | 0.00 | 0.00 | 1 | 1019.6 |
| 20260505164545 | 38 | 325 | 14.0 | 20.0 | 0.00 | 0.00 | 0.00 | 1 | 1019.5 |
| 20260505164016 | 38 | 319 | 9.0 | 19.0 | 0.00 | 0.00 | 0.00 | 1 | 1019.5 |
| 20260505163519 | 38 | 305 | 10.0 | 23.0 | 0.00 | 0.00 | 0.00 | 1 | 1019.5 |
| 20260505163050 | 38 | 301 | 13.0 | 23.0 | 0.00 | 0.00 | 0.00 | 1 | 1019.3 |
| 20260505162515 | 39 | 348 | 13.0 | 22.0 | 0.00 | 0.00 | 0.00 | 1 | 1019.2 |
| 20260505162019 | 40 | 355 | 17.0 | 25.0 | 0.00 | 0.00 | 0.00 | 1 | 1019.2 |
| 20260505161555 | 38 | 360 | 13.0 | 25.0 | 0.00 | 0.00 | 0.00 | 1 | 1019.4 |
| 20260505161016 | 37 | 13 | 13.0 | 19.0 | 0.00 | 0.00 | 0.00 | 1 | 1019.4 |
| 20260505160517 | 38 | 341 | 14.0 | 18.0 | 0.00 | 0.00 | 0.00 | 1 | 1019.4 |
| 20260505153049 | 36 | 323 | 10.0 | 15.0 | 0.00 | 0.00 | 0.00 | 1 | 1019.6 |
| 20260505152519 | 36 | 347 | 8.0 | 13.0 | 0.00 | 0.00 | 0.00 | 1 | 1019.7 |
| 20260505152017 | 36 | 318 | 8.0 | 14.0 | 0.00 | 0.00 | 0.00 | 1 | 1019.7 |
| 20260505151545 | 35 | 321 | 10.0 | 14.0 | 0.00 | 0.00 | 0.00 | 1 | 1019.6 |
| 20260505151019 | 35 | 336 | 10.0 | 14.0 | 0.00 | 0.00 | 0.00 | 1 | 1019.7 |
| 20260505150522 | 35 | 313 | 8.0 | 13.0 | 0.00 | 0.00 | 0.00 | 1 | 1019.7 |
| 20260505150125 | 35 | 302 | 8.0 | 12.0 | 0.00 | 0.00 | 0.00 | 1 | 1019.8 |
| 20260505140518 | 32 | 337 | 6.0 | 13.0 | 0.00 | 0.00 | 0.00 | 1 | 1019.5 |
| 20260505130108 | 30 | 273 | 6.0 | 9.0 | 0.00 | 0.00 | 0.00 | 1 | 1019.1 |
| 20260505125019 | 30 | 280 | 6.0 | 9.0 | 0.00 | 0.00 | 0.00 | 1 | 1018.9 |
| 20260505124601 | 30 | 294 | 6.0 | 9.0 | 0.00 | 0.00 | 0.00 | 1 | 1019.0 |
| 20260505124020 | 30 | 286 | 6.0 | 10.0 | 0.00 | 0.00 | 0.00 | 1 | 1019.0 |
| 20260505123520 | 30 | 281 | 7.0 | 10.0 | 0.00 | 0.00 | 0.00 | 1 | 1019.2 |
| 20260505123056 | 29 | 265 | 7.0 | 9.0 | 0.00 | 0.00 | 0.00 | 1 | 1019.2 |
| 20260505122522 | 30 | 281 | 7.0 | 10.0 | 0.00 | 0.00 | 0.00 | 1 | 1018.9 |
| 20260505122203 | 30 | 279 | 7.0 | 10.0 | 0.00 | 0.00 | 0.00 | 1 | 1019.1 |
| 20260505121604 | 30 | 296 | 7.0 | 9.0 | 0.00 | 0.00 | 0.00 | 1 | 1019.1 |
| 20260505121013 | 30 | 283 | 5.0 | 8.0 | 0.00 | 0.00 | 0.00 | 1 | 1019.1 |
| 20260505120510 | 30 | 302 | 6.0 | 9.0 | 0.00 | 0.00 | 0.00 | 1 | 1019.0 |
| 20260505120035 | 30 | 298 | 5.0 | 10.0 | 0.00 | 0.00 | 0.00 | 1 | 1019.3 |
| 20260505115512 | 30 | 304 | 7.0 | 10.0 | 0.00 | 0.00 | 0.00 | 1 | 1019.2 |
| 20260505115010 | 30 | 304 | 7.0 | 10.0 | 0.00 | 0.00 | 0.00 | 1 | 1019.0 |
| 20260505114538 | 30 | 310 | 7.0 | 9.0 | 0.00 | 0.00 | 0.00 | 1 | 1019.2 |
| 20260505114012 | 30 | 300 | 6.0 | 9.0 | 0.00 | 0.00 | 0.00 | 1 | 1019.1 |
| 20260505113513 | 30 | 288 | 6.0 | 11.0 | 0.00 | 0.00 | 0.00 | 1 | 1019.0 |
| 20260505113041 | 31 | 296 | 8.0 | 12.0 | 0.00 | 0.00 | 0.00 | 1 | 1018.9 |
| 20260505112514 | 31 | 302 | 8.0 | 12.0 | 0.00 | 0.00 | 0.00 | 1 | 1018.9 |
| 20260505112011 | 31 | 292 | 9.0 | 12.0 | 0.00 | 0.00 | 0.00 | 1 | 1018.8 |
| 20260505111540 | 31 | 304 | 8.0 | 12.0 | 0.00 | 0.00 | 0.00 | 1 | 1018.6 |
| 20260505111011 | 31 | 303 | 7.0 | 11.0 | 0.00 | 0.00 | 0.00 | 1 | 1018.8 |
| 20260505110511 | 31 | 311 | 8.0 | 11.0 | 0.00 | 0.00 | 0.00 | 1 | 1018.7 |
| 20260505102010 | 32 | 326 | 9.0 | 12.0 | 0.00 | 0.00 | 0.00 | 1 | 1018.7 |
| 20260505101542 | 33 | 327 | 10.0 | 14.0 | 0.00 | 0.00 | 0.00 | 1 | 1018.6 |
| 20260505101010 | 33 | 331 | 10.0 | 14.0 | 0.00 | 0.00 | 0.00 | 1 | 1018.6 |
| 20260505100513 | 33 | 338 | 9.0 | 14.0 | 0.00 | 0.00 | 0.00 | 1 | 1018.7 |
| 20260505100043 | 34 | 349 | 10.0 | 14.0 | 0.00 | 0.00 | 0.00 | 1 | 1018.6 |
| 20260505095510 | 34 | 346 | 11.0 | 16.0 | 0.00 | 0.00 | 0.00 | 1 | 1018.5 |
| 20260505095015 | 34 | 360 | 12.0 | 17.0 | 0.00 | 0.00 | 0.00 | 1 | 1018.5 |
| 20260505094533 | 35 | 324 | 14.0 | 17.0 | 0.00 | 0.00 | 0.00 | 1 | 1018.5 |
| 20260505094010 | 35 | 317 | 12.0 | 16.0 | 0.00 | 0.00 | 0.00 | 1 | 1018.6 |
| 20260505093513 | 35 | 5 | 12.0 | 16.0 | 0.00 | 0.00 | 0.00 | 1 | 1018.5 |
| 20260505093040 | 35 | 350 | 11.0 | 16.0 | 0.00 | 0.00 | 0.00 | 1 | 1018.4 |
| 20260505092514 | 35 | 346 | 8.0 | 10.0 | 0.00 | 0.00 | 0.00 | 1 | 1018.6 |
| 20260505092014 | 35 | 351 | 8.0 | 12.0 | 0.00 | 0.00 | 0.00 | 1 | 1018.5 |
| 20260505091559 | 36 | 343 | 8.0 | 15.0 | 0.00 | 0.00 | 0.00 | 1 | 1018.5 |
| 20260505091013 | 36 | 331 | 11.0 | 15.0 | 0.00 | 0.00 | 0.00 | 1 | 1018.3 |
| 20260505090513 | 36 | 336 | 9.0 | 12.0 | 0.00 | 0.00 | 0.00 | 1 | 1018.3 |
| 20260505090055 | 36 | 341 | 9.0 | 12.0 | 0.00 | 0.00 | 0.00 | 1 | 1018.2 |
| 20260505085511 | 36 | 349 | 8.0 | 13.0 | 0.00 | 0.00 | 0.00 | 1 | 1018.1 |
| 20260505085015 | 36 | 347 | 10.0 | 14.0 | 0.00 | 0.00 | 0.00 | 1 | 1018.1 |